Погода в Украинке

Украина / Киевская область     50°08′59″N   30°44′52″E
темп.,
°C
ветер,
м/с
пор.,
м/с
влажн.,
%
обл.,
%
осадки,
мм/ч
давл.,
гПа
погр.,
м
18 мая, вт
вт1800:00+13ююз229452 0.0 100311
03:00+13ююз229422 0.0 100326
06:00+12ю229398 0.0 100342
09:00+17юв3375100 0.0 1003373
12:00+19юв567120 1.8 1002793
15:00+21юв566012 2.8 10001385
18:00+19ююв477967 3.1 999746
21:00+14юв499285 5.4 999246
19 мая, ср
ср1900:00+12ююв49961 0.0 1000253
03:00+10юв3897100 0.0 1000198
06:00+10ююв369599 0.0 1001152
09:00+15ююв3581100 0.0 1002539
12:00+18ю356334 0.3 10021434
15:00+19юв225932 1.8 10031239
18:00+18з337272 2.6 1003841
21:00+12сз599584 4.6 1005386
20 мая, чт
чт2000:00+12зсз5894100 0.7 1005431
03:00+11зсз5994100 0.8 1006506
06:00+11зсз4893100 0.1 1006485
09:00+12з4792100 0.1 1007576
12:00+12сз598257 0.1 1008878
15:00+14зсз467224 0.3 1010642
18:00+15ссз237198 0.1 1011354
21:00+10всв3590100 0.2 101291
21 мая, пт
пт2100:00+9вюв2289100 0.0 101325
03:00+9ююв2290100 0.0 101424
06:00+10ссв2390100 0.0 101467
09:00+13св2377100 0.0 1015455
12:00+15ссв3566100 0.2 1015871
15:00+14св1278100 0.7 1016173
18:00+12юв2295100 2.4 1017150
21:00+11св2595100 4.1 1017226
22 мая, сб
сб2200:00+10ссв2592100 0.3 1017150
03:00+10с3692100 0.4 1017160
06:00+10ссз4890100 0.0 1017223
09:00+11с4986100 0.0 1017291
12:00+17ссв676795 0.0 1016847
15:00+19ссв556570 0.0 10161218
18:00+18св367687 0.0 1015521
21:00+14св22900 0.0 101524